Indianapolis Mount Comfort, IN

6:01 AM EST on December 15, 2019 (GMT -0500)
Mount Comfort

Weather History for KMQJ - June, 2019

Change the Weather History Date:

Thursday, June 13, 2019

  Actual Average (WUND) Record (WUND)
Temperature  
Mean Temperature 56 °F -  
Max Temperature 62 °F - - (-1)
Min Temperature 50 °F - - (-1)
Degree Days  
Heating Degree Days 9    
Growing Degree Days 6 (Base 50)    
Moisture  
Dew Point 53 °F    
Average Humidity 88    
Maximum Humidity 100    
Minimum Humidity 68    
Precipitation  
Precipitation 0.00 in - - ()
Sea Level Pressure  
Sea Level Pressure 29.88 in    
Wind  
Wind Speed 11 mph (West)    
Max Wind Speed 26 mph    
Max Gust Speed 33 mph    
Visibility 10 miles    
Events      
Averages and records for this station are not official NWS values.
T = Trace of Precipitation, MM = Missing Value Source: NWS Daily Summary

Daily Weather History Graph

Daily Weather History Graph

Search for Another Location

Airport or City:

Astronomy

Jun. 13, 2019 Rise Set
Actual Time 6:14 AM EDT 9:12 PM EDT
Civil Twilight 5:42 AM EDT 9:45 PM EDT
Nautical Twilight 5:00 AM EDT 10:26 PM EDT
Astronomical Twilight 4:12 AM EDT 11:14 PM EDT
Moon 5:27 PM EDT (6/13) 3:59 AM EDT (6/13)
Length of Visible Light 16h 03m
Length of Day
14h 58m
Waxing Gibbous, 85% of the Moon is Illuminated
Jun 13
Waxing Gibbous
Jun 17
Full
Jun 25
Last Quarter
Jul 2
New
Jul 9
First Quarter

Hourly Weather History & Observations

Time (EDT) Temp. Dew Point Humidity Pressure Visibility Wind Dir Wind Speed Gust Speed Precip Events Conditions
12:03 AM 59.0 °F 55.4 °F 88% 29.81 in 10.0 mi WNW 10.4 mph - N/A   Overcast
12:23 AM 59.0 °F 55.4 °F 88% 29.81 in 10.0 mi West 11.5 mph - N/A   Overcast
12:45 AM 59.0 °F 55.4 °F 88% 29.81 in 10.0 mi West 8.1 mph - N/A   Overcast
1:04 AM 59.0 °F 55.4 °F 88% 29.80 in 10.0 mi SW 4.6 mph - N/A   Overcast
1:27 AM 59.0 °F 55.4 °F 88% 29.78 in 10.0 mi Calm Calm - N/A   Mostly Cloudy
1:46 AM 57.2 °F 57.2 °F 100% 29.78 in 10.0 mi Calm Calm - N/A   Mostly Cloudy
2:03 AM 57.2 °F 55.4 °F 94% 29.77 in 10.0 mi Calm Calm - N/A   Overcast
2:24 AM 57.2 °F 55.4 °F 94% 29.76 in 10.0 mi Calm Calm - N/A   Overcast
2:45 AM 57.2 °F 55.4 °F 94% 29.76 in 10.0 mi South 5.8 mph - N/A   Overcast
3:19 AM 57.2 °F 57.2 °F 100% 29.76 in 10.0 mi SSW 5.8 mph - N/A   Overcast
3:49 AM 57.2 °F 55.4 °F 94% 29.75 in 10.0 mi SW 6.9 mph - N/A   Mostly Cloudy
4:08 AM 57.2 °F 55.4 °F 94% 29.74 in 10.0 mi SW 5.8 mph - N/A   Mostly Cloudy
4:26 AM 57.2 °F 55.4 °F 94% 29.74 in 10.0 mi SW 6.9 mph - N/A   Mostly Cloudy
4:46 AM 55.4 °F 55.4 °F 100% 29.74 in 10.0 mi SSW 5.8 mph - N/A   Mostly Cloudy
5:04 AM 55.4 °F 55.4 °F 100% 29.74 in 10.0 mi SSW 5.8 mph - N/A   Mostly Cloudy
5:26 AM 55.4 °F 55.4 °F 100% 29.74 in 10.0 mi SSW 5.8 mph - N/A   Mostly Cloudy
5:46 AM 55.4 °F 55.4 °F 100% 29.74 in 10.0 mi SSW 8.1 mph - N/A   Overcast
6:03 AM 55.4 °F 55.4 °F 100% 29.74 in 5.0 mi SW 8.1 mph - N/A   Overcast
6:23 AM 55.4 °F 55.4 °F 100% 29.74 in 4.0 mi WSW 6.9 mph - N/A   Overcast
6:42 AM 55.4 °F 55.4 °F 100% 29.75 in 4.0 mi West 12.7 mph - N/A   Overcast
7:09 AM 55.4 °F 55.4 °F 100% 29.76 in 10.0 mi West 19.6 mph 25.3 mph N/A   Overcast
7:27 AM 55.4 °F 55.4 °F 100% 29.77 in 10.0 mi WNW 16.1 mph - N/A   Overcast
7:45 AM 55.4 °F 55.4 °F 100% 29.78 in 10.0 mi WNW 15.0 mph - N/A   Overcast
8:07 AM 53.6 °F 53.6 °F 100% 29.78 in 10.0 mi WNW 21.9 mph - N/A   Overcast
8:23 AM 55.4 °F 53.6 °F 94% 29.79 in 10.0 mi WNW 15.0 mph 20.7 mph N/A   Overcast
8:45 AM 55.4 °F 51.8 °F 88% 29.80 in 10.0 mi WNW 13.8 mph 26.5 mph N/A   Overcast
9:06 AM 55.4 °F 51.8 °F 88% 29.81 in 10.0 mi West 20.7 mph - N/A   Overcast
9:24 AM 55.4 °F 53.6 °F 94% 29.81 in 10.0 mi West 17.3 mph 20.7 mph N/A   Overcast
9:45 AM 55.4 °F 53.6 °F 94% 29.82 in 10.0 mi West 19.6 mph 31.1 mph N/A   Overcast
10:02 AM 55.4 °F 53.6 °F 94% 29.82 in 10.0 mi WNW 17.3 mph 27.6 mph N/A   Overcast
10:23 AM 55.4 °F 51.8 °F 88% 29.82 in 10.0 mi WNW 26.5 mph 33.4 mph N/A   Overcast
10:43 AM 55.4 °F 51.8 °F 88% 29.83 in 10.0 mi West 18.4 mph 23.0 mph N/A   Overcast
11:07 AM 57.2 °F 51.8 °F 82% 29.84 in 10.0 mi WNW 19.6 mph 29.9 mph N/A   Overcast
11:30 AM 57.2 °F 51.8 °F 82% 29.84 in 10.0 mi WNW 23.0 mph 32.2 mph N/A   Overcast
11:47 AM 57.2 °F 51.8 °F 82% 29.84 in 10.0 mi West 20.7 mph 26.5 mph N/A   Overcast
12:02 PM 57.2 °F 51.8 °F 82% 29.85 in 10.0 mi WNW 20.7 mph 29.9 mph N/A   Overcast
12:24 PM 59.0 °F 51.8 °F 77% 29.86 in 10.0 mi West 17.3 mph 26.5 mph N/A   Overcast
12:44 PM 57.2 °F 51.8 °F 82% 29.87 in 10.0 mi West 21.9 mph - N/A   Overcast
1:03 PM 60.8 °F 53.6 °F 77% 29.87 in 10.0 mi West 16.1 mph 25.3 mph N/A   Overcast
1:23 PM 60.8 °F 51.8 °F 72% 29.88 in 10.0 mi West 19.6 mph 33.4 mph N/A   Overcast
1:49 PM 60.8 °F 51.8 °F 72% 29.89 in 10.0 mi WNW 16.1 mph 31.1 mph N/A   Overcast
2:12 PM 62.6 °F 51.8 °F 68% 29.89 in 10.0 mi West 25.3 mph 32.2 mph N/A   Mostly Cloudy
2:24 PM 62.6 °F 51.8 °F 68% 29.89 in 10.0 mi WNW 20.7 mph 33.4 mph N/A   Overcast
2:48 PM 62.6 °F 51.8 °F 68% 29.89 in 10.0 mi West 23.0 mph 29.9 mph N/A   Overcast
3:04 PM 60.8 °F 51.8 °F 72% 29.92 in 10.0 mi NNW 21.9 mph 32.2 mph N/A   Overcast
3:23 PM 55.4 °F 55.4 °F 100% 29.93 in 3.0 mi NW 17.3 mph - N/A   Overcast
3:46 PM 57.2 °F 55.4 °F 94% 29.94 in 10.0 mi WNW 21.9 mph 29.9 mph N/A   Overcast
4:03 PM 59.0 °F 55.4 °F 88% 29.94 in 10.0 mi NW 20.7 mph 29.9 mph N/A   Overcast
4:25 PM 57.2 °F 53.6 °F 88% 29.96 in 10.0 mi NW 15.0 mph 29.9 mph N/A   Overcast
4:48 PM 59.0 °F 53.6 °F 82% 29.96 in 10.0 mi NW 19.6 mph 27.6 mph N/A   Overcast
5:05 PM 60.8 °F 51.8 °F 72% 29.97 in 10.0 mi NW 24.2 mph 33.4 mph N/A   Mostly Cloudy
5:26 PM 60.8 °F 51.8 °F 72% 29.98 in 10.0 mi NNW 18.4 mph 25.3 mph N/A   Mostly Cloudy
5:44 PM 62.6 °F 51.8 °F 68% 29.98 in 10.0 mi NNW 21.9 mph 26.5 mph N/A   Scattered Clouds
6:30 PM 62.6 °F 51.8 °F 68% 30.00 in 10.0 mi NNW 17.3 mph 24.2 mph N/A   Overcast
6:43 PM 62.6 °F 51.8 °F 68% 30.00 in 10.0 mi NNW 17.3 mph 24.2 mph N/A   Mostly Cloudy
7:07 PM 60.8 °F 50.0 °F 68% 30.01 in 10.0 mi NNW 12.7 mph 18.4 mph N/A   Overcast
7:24 PM 59.0 °F 50.0 °F 72% 30.01 in 10.0 mi NNW 10.4 mph - N/A   Overcast
7:44 PM 59.0 °F 51.8 °F 77% 30.01 in 10.0 mi NNW 6.9 mph - N/A   Overcast
8:06 PM 57.2 °F 51.8 °F 82% 30.02 in 10.0 mi NW 5.8 mph - N/A   Scattered Clouds
8:24 PM 59.0 °F 51.8 °F 77% 30.02 in 10.0 mi WNW 4.6 mph - N/A   Scattered Clouds
8:43 PM 57.2 °F 51.8 °F 82% 30.02 in 10.0 mi West 3.5 mph - N/A   Clear
9:03 PM 55.4 °F 51.8 °F 88% 30.03 in 10.0 mi WNW 4.6 mph - N/A   Clear
9:24 PM 53.6 °F 51.8 °F 94% 30.04 in 10.0 mi West 3.5 mph - N/A   Clear
9:43 PM 53.6 °F 51.8 °F 94% 30.04 in 10.0 mi Calm Calm - N/A   Clear
10:04 PM 51.8 °F 51.8 °F 100% 30.05 in 10.0 mi WSW 3.5 mph - N/A   Clear
10:25 PM 50.0 °F 50.0 °F 100% 30.06 in 10.0 mi WSW 4.6 mph - N/A   Clear
10:43 PM 51.8 °F 51.8 °F 100% 30.07 in 10.0 mi SW 3.5 mph - N/A   Clear
11:03 PM 51.8 °F 51.8 °F 100% 30.07 in 10.0 mi Calm Calm - N/A   Clear
11:23 PM 50.0 °F 50.0 °F 100% 30.08 in 10.0 mi Calm Calm - N/A   Clear
11:43 PM 50.0 °F 50.0 °F 100% 30.08 in 10.0 mi Calm Calm - N/A   Clear